FW6705 Weather Reports


Display with metric or nautical units.
time (UTC)temp
F
wind
direction
speed
MPH
gust
MPH
rain 1hr
in
rain 24hr
in
rain mn
in
humidity
%
barometer
mb
20260906133015 66 0.0 0.0 0.00 0.00 0.00 99 1020.5
20260906130017 65 0.0 0.0 0.00 0.00 0.00 99 1020.2
20260906123018 63 0.0 0.0 0.00 0.00 0.00 98 1019.9
20260906120017 62 0.0 0.0 0.00 0.00 0.00 98 1019.3
20260906113017 62 0.0 0.0 0.00 0.00 0.00 98 1019.1
20260906110017 62 0.0 0.0 0.00 0.00 0.00 98 1019.0
20260906103057 62 0.0 0.0 0.00 0.00 0.00 98 1019.0
20260906100017 62 0.0 0.0 0.00 0.00 0.00 97 1018.9
20260906093017 63 0.0 0.0 0.00 0.00 0.00 97 1018.6
20260906090016 63 0.0 0.0 0.00 0.00 0.00 97 1018.4
20260906083017 63 0.0 0.0 0.00 0.00 0.00 97 1018.5
20260906080016 64 0.0 0.0 0.00 0.00 0.00 97 1018.6
20260906073017 64 0.0 0.0 0.00 0.00 0.00 96 1018.5
20260906070016 65 0.0 0.0 0.00 0.00 0.00 96 1018.6
20260906063016 65 0.0 0.0 0.00 0.00 0.00 96 1018.7
20260906060056 66 0.0 0.0 0.00 0.00 0.00 96 1018.9
20260906053016 67 0.0 0.0 0.00 0.00 0.00 96 1018.2
20260906050017 67 0.0 0.0 0.00 0.00 0.00 95 1018.3
20260906043017 68 0.0 0.0 0.00 0.00 0.00 95 1018.0
20260906040022 68 0.0 0.0 0.00 0.00 0.00 94 1017.8
20260906033017 69 0.0 0.0 0.00 0.00 0.00 93 1017.6
20260906030019 70 90 1.0 4.0 0.00 0.00 0.00 93 1017.3
20260906023016 70 90 1.0 3.0 0.00 0.00 0.00 93 1017.0
20260906020016 71 90 2.0 3.0 0.00 0.00 0.00 92 1016.7
20260906013021 72 90 1.0 3.0 0.00 0.00 0.00 91 1016.9
20260906010016 73 90 1.0 4.0 0.00 0.00 0.00 88 1016.8
20260906003018 75 68 1.0 4.0 0.00 0.00 0.00 87 1016.3
20260906000019 77 68 2.0 5.0 0.00 0.00 0.00 85 1016.4
20260905233017 79 68 1.0 3.0 0.00 0.00 0.00 82 1016.4
20260905230017 80 45 1.0 3.0 0.00 0.00 0.00 82 1016.1
20260905223021 81 68 1.0 6.0 0.00 0.00 0.00 79 1016.0
20260905220016 82 23 1.0 4.0 0.00 0.00 0.00 77 1016.0
20260905213016 82 0 1.0 4.0 0.00 0.00 0.00 78 1015.8
20260905210057 80 45 1.0 3.0 0.00 0.00 0.00 80 1016.1
20260905203017 80 90 1.0 3.0 0.00 0.00 0.00 83 1016.0
20260905200016 79 45 1.0 4.0 0.00 0.00 0.00 85 1016.2
20260905193016 77 45 1.0 3.0 0.00 0.00 0.00 89 1016.2
20260905190016 76 68 1.0 3.0 0.00 0.00 0.00 89 1016.4
20260905183015 76 45 1.0 3.0 0.00 0.00 0.00 90 1016.5
20260905180016 77 45 1.0 4.0 0.00 0.00 0.00 91 1016.5
20260905173015 76 45 1.0 3.0 0.00 0.00 0.00 91 1016.5
20260905170016 76 45 2.0 3.0 0.00 0.00 0.00 90 1016.6
20260905163015 78 68 1.0 3.0 0.00 0.00 0.00 90 1016.6
20260905160021 76 68 1.0 3.0 0.00 0.00 0.00 91 1016.5
20260905153016 76 68 1.0 3.0 0.00 0.00 0.00 92 1016.3
20260905150016 75 68 1.0 2.0 0.00 0.00 0.00 94 1016.0
20260905143055 74 90 1.0 3.0 0.00 0.00 0.00 95 1015.7
20260905140016 73 90 1.0 3.0 0.00 0.00 0.00 97 1015.7